Location: Charbonni�res
(45.9952°N, 2.9982°E)
Time: 17:56:06
(UTC+00:00)

FALCON 9 DEB - Pass Details

Date: 29 November 2020
Orbit: 373 x 391 km, 53.0° (Epoch: 23 January)

Event Time Altitude Azimuth Distance (km) Brightness Sun altitude
Exits shadow 06:01:03 18° 282° (WNW) 1,041 4.4 -11.2°
Maximum altitude 06:02:57 36° 341° (NNW) 651 3.7 -10.9°
Drops below altitude 10° 06:05:59 10° 50° (NE) 1,445 6.2 -10.4°
Sets 06:08:10 0° 59° (ENE) 2,307 7.4 -10.1°
